Location: Bear Valley
(38.4650°N, 120.0390°W)
Time: 18:59:06
(UTC-08:00)

Hubble Space Telescope - Visible Passes

Search period start: 20 February 2018 00:00
Search period end: 02 March 2018 00:00
Orbit: 537 x 541 km, 28.5° (Epoch: 20 February)

Date Brightness Start Highest point End Pass type
(mag) Time Alt. Az. Time Alt. Az. Time Alt. Az.
20 Feb 3.0 05:53:59 10° SW 05:56:49 18° S 05:59:38 10° SE visible
21 Feb 2.8 05:43:29 10° SW 05:46:26 19° S 05:49:24 10° SE visible
22 Feb 2.7 05:33:20 11° SW 05:36:04 20° S 05:39:06 10° SE visible
23 Feb 2.7 05:23:39 14° SW 05:25:42 20° S 05:28:46 10° SE visible
24 Feb 2.6 05:13:57 17° SSW 05:15:20 20° S 05:18:23 10° SE visible
25 Feb 2.5 05:04:15 19° SSW 05:04:57 20° S 05:07:57 10° SE visible
26 Feb 2.6 04:54:33 19° S 04:54:35 19° S 04:57:29 10° SE visible
27 Feb 2.8 04:44:53 17° S 04:44:53 17° S 04:46:57 10° SSE visible
28 Feb 3.1 04:35:15 14° SSE 04:35:15 14° SSE 04:36:20 10° SSE visible
